Regional Weather Roundup
Issued by NWS Kansas City/Pleasant Hill, MO

Home | Current Version | Previous Version | Text Only | Print | Product List | Glossary On
Versions: 1 2 3 4 5 6 7 8 9 10 11 12 13 14 15 16 17 18 19 20 21 22 23 24 25 26 27
000
ASUS43 KEAX 290510
RWREAX

WEATHER ROUNDUP FOR EASTERN KANSAS AND NORTHWEST MISSOURI
NATIONAL WEATHER SERVICE KANSAS CITY/PLEASANT HILL MO
1200 AM CDT SAT APR 29 2017

KSZ040-057-103>105-MOZ028-029-037-043-290600-
...KANSAS CITY METROPOLITAN AREA...

CITY           SKY/WX    TMP DP  RH WIND       PRES   REMARKS
K.C. INTL      CLOUDY    44  43  96 N14       29.92F VSB 1
K.C. DOWNTOWN  CLOUDY    47  44  90 N13       29.91F
LEES SUMMIT    CLOUDY    46  46 100 N15       29.90F FOG
OLATHE - IXD   CLOUDY    46  46 100 N16       29.90F FOG
OLATHE - OJC   CLOUDY    46  46 100 N16       29.89F
LAWRENCE       CLOUDY    46  46 100 NW10      29.93F

$$

MOZ001>008-011>017-020>025-030>033-038>040-044>046-053-054-290600-
...NORTHERN AND CENTRAL MISSOURI...

CITY           SKY/WX    TMP DP  RH WIND       PRES   REMARKS
ST. JOSEPH     CLOUDY    44  44 100 N12       29.98F
MOSBY          CLOUDY    45  45 100 N9G16     29.93F
WHITEMAN AFB   CLOUDY    50  50 100 N17       29.86S
CLINTON        CLOUDY    55  55 100 N17       29.83F FOG
SEDALIA        FOG       56  56 100 N17       29.85F VSB 3/4
WARSAW         NOT AVBL
CHILLICOTHE      N/A     45  44  97 N8        29.95F
KIRKSVILLE     CLOUDY    44  31  60 N15       29.93F

$$

MOZ041-047>049-056>058-063>065-088>090-097-290600-
...EASTERN AND SOUTHERN MISSOURI...

CITY           SKY/WX    TMP DP  RH WIND       PRES   REMARKS
ST. LOUIS INTL CLOUDY    59  57  93 N3        29.87R FOG
SPIRIT OF STL  CLOUDY    59  58  96 N8        29.84R FOG
COLUMBIA       CLOUDY    58  58 100 NE10      29.83F FOG
JEFFERSON CITY CLOUDY    61  57  87 N10       29.81F
ROLLA          CLOUDY    58  58 100 E7        29.81S FOG
OSAGE BEACH    CLOUDY    59  59 100 NE7       29.82S
SPRINGFIELD    CLOUDY    62  61  96 N7        29.79R
BRANSON        LGT RAIN  63  63 100 N8        29.78S
JOPLIN         CLOUDY    63  60  90 E14G21    29.78S
WEST PLAINS    CLOUDY    64  63  96 NE5       29.78F FOG

$$

IAZ060-094-KSZ022-034>040-054-083-096-NEZ052-066-093-290600-
...KANSAS...SOUTHEAST NEBRASKA AND IOWA...

CITY           SKY/WX    TMP DP  RH WIND       PRES   REMARKS
TOPEKA         CLOUDY    46  45  96 N12       29.95F
MANHATTAN      CLOUDY    45  41  86 NE12      29.97F
EMPORIA        CLOUDY    46  46 100 N14       29.89F
CHANUTE        CLOUDY    55  53  93 N17G25    29.79F FOG
WICHITA        CLOUDY    50  45  83 N23G31    29.83F
OMAHA          CLOUDY    44  37  76 N9        30.08R
LINCOLN        CLOUDY    42  39  89 NE12      30.06F
FALLS CITY     CLOUDY    44  42  93 N8        30.02R
LAMONI         CLOUDY    43  42  97 NE12      30.00R
DES MOINES     CLOUDY    45  39  79 NE10      30.05R

$$





USA.gov is the U.S. government's official web portal to all federal, state and local government web resources and services.